This demonstration page uses our WeatherBlox Daily Observations layout. Learn more.

Left ArrowRight Arrow

Hourly Observations for February 4, 2019

Temp ( °F °C ) Dew Point ( °F °C ) Humidity (%) Winds ( mph kmh ) Pressure ( in mb ) Visibility ( mi km ) Precip ( " mm )
12:19 am 00:19 Cloudy with Mist and Fog 32 0 30 -1.1 92 92 NNW 18 30 29.65 1004 1 2 0.00 0.00
12:52 am 00:52 Cloudy with Mist and Fog 30 -1.1 28 -2.2 92 92 NNW 28 44 29.67 1005 2 3 0.00 0.00
12:56 am 00:56 Cloudy with Light Freezing Drizzle 30 -1.1 27 -2.8 88 88 NNW 21 33 29.72 1006 2 3 0.00 0.03
1:09 am 01:09 Cloudy with Light Freezing Drizzle 29 -1.7 26 -3.3 89 89 NNW 22 35 29.72 1006 2 3 0.00 0.03
1:52 am 01:52 Cloudy with Light Freezing Drizzle 24 -4.4 21 -6.1 88 88 NNW 25 41 29.71 1006 3 5 0.00 0.03
2:09 am 02:09 Cloudy with Light Freezing Drizzle 23 -5 20 -6.7 88 88 NNW 24 39 29.78 1009 3 4 0.00 0.03
2:17 am 02:17 Cloudy with Light Freezing Rain 23 -5 20 -6.7 88 88 NNW 26 43 29.79 1009 3 4 0.00 0.03
2:25 am 02:25 Cloudy with Light Freezing Drizzle 22 -5.6 19 -7.2 89 89 NNW 23 37 29.80 1009 3 5 0.00 0.03
2:33 am 02:33 Cloudy with Mist and Fog 22 -5.6 18 -7.8 85 85 NNW 26 43 29.81 1009 4 6 0.00 0.03
2:52 am 02:52 Windy with Snow Likely 20 -6.7 16 -8.9 85 85 NNW 28 44 29.77 1008 5 8 0.00 0.03
3:09 am 03:09 Windy with Snow Likely 18 -7.8 14 -10 84 84 NNW 22 35 29.84 1010 5 8 0.00 0.03
3:52 am 03:52 Windy with Snow Likely 17 -8.3 12 -11.1 80 80 NNW 23 37 29.82 1010 4 6 0.00 0.03
4:52 am 04:52 Windy with Snow Likely 15 -9.4 10 -12.2 80 80 NNW 24 39 29.85 1011 4 6 0.00 0.03
5:09 am 05:09 Windy with Snow Likely 15 -9.4 10 -12.2 80 80 NW 24 39 29.92 1013 3 4 0.00 0.03
5:37 am 05:37 Windy with Snow Likely 15 -9.4 9 -12.8 77 77 NW 23 37 29.95 1014 3 5 0.00 0.03
5:52 am 05:52 Windy with Snow Likely 14 -10 8 -13.3 77 77 NNW 25 41 29.90 1013 3 5 0.00 0.03
6:52 am 06:52 Windy with Snow Likely 12 -11.1 6 -14.4 77 77 NNW 26 43 29.95 1014 3 5 0.00 0.03
7:52 am 07:52 Cloudy 12 -11.1 5 -15 73 73 NNW 21 33 29.98 1015 10 16 0.00 0.03
8:52 am 08:52 Mostly Cloudy 12 -11.1 5 -15 73 73 NW 22 35 30.03 1017 10 16 0.00 0.00
9:44 am 09:44 Partly Cloudy 12 -11.1 4 -15.6 70 70 NNW 24 39 30.13 1020 9 14 0.00 0.00
9:52 am 09:52 Partly Cloudy 12 -11.1 4 -15.6 70 70 NW 21 33 30.06 1018 10 16 0.00 0.00
10:52 am 10:52 Mostly Sunny 13 -10.6 3 -16.1 64 64 NNW 20 31 30.10 1019 10 16 0.00 0.00
11:52 am 11:52 Partly Cloudy 14 -10 4 -15.6 64 64 NNW 23 37 30.11 1020 10 16 0.00 0.00
12:52 pm 12:52 Partly Cloudy 16 -8.9 5 -15 62 62 N 17 28 30.11 1020 10 16 0.00 0.00
1:52 pm 13:52 Partly Cloudy 17 -8.3 5 -15 59 59 N 22 35 30.10 1019 10 16 0.00 0.00
2:52 pm 14:52 Partly Cloudy 18 -7.8 5 -15 57 57 N 22 35 30.10 1019 10 16 0.00 0.00
3:52 pm 15:52 Partly Cloudy 18 -7.8 5 -15 57 57 N 17 28 30.11 1020 10 16 0.00 0.00
4:52 pm 16:52 Mostly Cloudy 17 -8.3 5 -15 59 59 N 17 28 30.13 1020 10 16 0.00 0.00
5:52 pm 17:52 Mostly Cloudy 14 -10 3 -16.1 61 61 N 17 28 30.16 1021 10 16 0.00 0.00
6:52 pm 18:52 Mostly Cloudy 13 -10.6 2 -16.7 61 61 N 16 26 30.18 1022 10 16 0.00 0.00
7:52 pm 19:52 Cloudy 13 -10.6 2 -16.7 61 61 N 22 35 30.18 1022 10 16 0.00 0.00
8:52 pm 20:52 Cloudy 12 -11.1 2 -16.7 64 64 N 17 28 30.19 1023 10 16 0.00 0.00
9:52 pm 21:52 Cloudy 11 -11.7 1 -17.2 64 64 N 16 26 30.20 1023 10 16 0.00 0.00
10:52 pm 22:52 Mostly Cloudy 11 -11.7 0 -17.8 61 61 NNE 12 19 30.21 1023 10 16 0.00 0.00
11:52 pm 23:52 Mostly Cloudy 10 -12.2 -1 -18.3 61 61 N 14 22 30.20 1023 10 16 0.00 0.00

Powered by AerisWeather